Back to catalog

STARLINK-32591

AliveCommunicationsVLEO
NORAD 61718·PAYLOAD·🇺🇸 United States

Launched Oct 30, 2024 from Cape Canaveral Space Force Station

Loading…

Next Passes (next 24 hours)

TLE

FreshSource: CelesTrak SupGP

Epoch: Sep 14, 2026, 15:12 UTC

1 61718C 24196M   26257.63381944  .00000748  00000+0  22112-4 0  2572
2 61718  53.1565 286.8372 0001139  78.1521 224.6345 15.34379221    18

Track STARLINK-32591 in real time with AllMySat

Download on the App Store